Location: Mason Neck State Park
(38.6428°N, 77.1981°W)
Time: 13:17:05
(UTC-04:00)

Cosmos 2278 Rocket - Visible Passes

Search period start: 24 June 2017 00:00
Search period end: 04 July 2017 00:00
Orbit: 843 x 844 km, 71.0° (Epoch: 23 June)

Date Brightness Start Highest point End Pass type
(mag) Time Alt. Az. Time Alt. Az. Time Alt. Az.
24 Jun 3.2 01:03:25 33° E 01:03:25 33° E 01:07:48 10° NE visible
24 Jun 3.3 02:45:15 28° W 02:46:47 32° WNW 02:51:49 10° N visible
25 Jun 3.3 00:49:02 31° E 00:49:02 31° E 00:53:12 10° NE visible
25 Jun 3.3 02:30:51 29° W 02:32:13 33° WNW 02:37:18 10° N visible
26 Jun 3.4 00:34:37 30° E 00:34:37 30° E 00:38:36 10° NE visible
26 Jun 3.2 02:16:26 31° W 02:17:39 34° WNW 02:22:47 10° N visible
27 Jun 3.4 00:20:10 28° E 00:20:10 28° E 00:24:00 10° NE visible
27 Jun 3.2 02:01:59 33° W 02:03:05 36° WNW 02:08:17 10° N visible
28 Jun 3.5 00:05:40 27° E 00:05:40 27° E 00:09:24 10° NE visible
28 Jun 3.1 01:47:29 35° W 01:48:31 37° WNW 01:53:46 10° N visible
28 Jun 3.5 23:51:08 26° E 23:51:08 26° E 23:54:47 10° NE visible
29 Jun 3.1 01:32:57 36° W 01:33:57 39° WNW 01:39:14 10° N visible
29 Jun 3.5 23:36:33 25° E 23:36:33 25° E 23:40:10 10° NE visible
30 Jun 3.1 01:18:22 37° W 01:19:24 41° WNW 01:24:44 10° N visible
30 Jun 3.5 23:21:55 24° E 23:21:55 24° E 23:25:33 10° NE visible
01 Jul 3.0 01:03:43 38° W 01:04:50 43° WNW 01:10:13 10° N visible
01 Jul 3.5 23:07:13 23° E 23:07:13 23° E 23:10:56 10° NE visible
02 Jul 3.0 00:49:02 39° W 00:50:16 44° WNW 00:55:41 10° N visible
02 Jul 3.5 22:52:27 22° E 22:52:27 22° E 22:56:18 10° NE visible
03 Jul 3.0 00:34:16 38° WSW 00:35:42 46° WNW 00:41:10 10° N visible
03 Jul 3.5 22:37:37 22° E 22:37:37 22° E 22:41:40 10° NE visible
